Location: Chrome
(40.5765°N, 74.2163°W)
Time: 11:26:02
(UTC+00:00)

Meteor 1-5 Rocket - Pass Details

Date: 06 December 2019
Orbit: 788 x 916 km, 81.2° (Epoch: 19 January)

Event Time Altitude Azimuth Distance (km) Brightness Sun altitude
Rises 22:36:38 0° 350° (N) 3,428 7.3 -12.4°
Reaches altitude 10° 22:39:06 10° 351° (N) 2,469 6.5 -12.8°
Maximum altitude 22:44:41 89° 83° (E) 827 4.1 -13.8°
Drops below altitude 10° 22:50:04 10° 172° (S) 2,376 6.7 -14.8°
Sets 22:52:24 0° 172° (S) 3,290 7.4 -15.2°
